Location: Agadir Mansour Mhndou
(31.2424°N, 8.7730°W)
Time: 06:12:41
(UTC+00:00)

CZ-4B R/B - Pass Details

Date: 16 October 2021
Orbit: 808 x 882 km, 99.1° (Epoch: 28 November)

Event Time Altitude Azimuth Distance (km) Brightness Sun altitude
Rises 18:29:03 0° 155° (SSE) 3,429 6.2 -6.5°
Reaches altitude 10° 18:31:26 10° 152° (SSE) 2,504 5.5 -7.0°
Maximum altitude 18:36:55 60° 74° (ENE) 998 3.3 -8.2°
Drops below altitude 10° 18:42:29 10° 355° (N) 2,543 5.7 -9.4°
Sets 18:44:55 0° 352° (N) 3,486 6.4 -9.9°
